Location: Cella
(44.7333°N, 10.5667°E)
Time: 10:10:22
(UTC+00:00)

SL-4 R/B - Pass Details

Date: 03 March 2021
Orbit: 428 x 663 km, 51.6° (Epoch: 18 April)

Event Time Altitude Azimuth Distance (km) Brightness Sun altitude
Rises 19:51:19 0° 300° (WNW) 2,440 6.5 -29.3°
Reaches altitude 10° 19:53:28 10° 301° (WNW) 1,548 5.2 -29.6°
Enters shadow 19:54:23 17° 301° (WNW) 1,178 4.4 -29.8°
